This demonstration page uses our WeatherBlox Daily Observations layout. Learn more.

Left ArrowRight Arrow

39.51506, -84.39828

Hourly Observations for August 27, 2020

Temp ( °F °C ) Dew Point ( °F °C ) Humidity (%) Winds ( mph kmh ) Pressure ( in mb ) Visibility ( mi km ) Precip ( " mm )
12:15 am 00:15 Clear 75 23.9 73 22.6 92 92 SSW 6 9 29.98 1015 10 16.0934 0 0
12:35 am 00:35 Clear 75 23.8 73 22.5 92 92 SW 5 7 29.97 1015 10 16.0934 0 0
12:55 am 00:55 Clear 74 23.5 73 22.5 94 94 SW 5 7 29.97 1015 10 16.0934 0 0
1:15 am 01:15 Clear 74 23.5 73 22.7 95 95 SW 6 9 29.97 1015 10 16.0934 0 0
1:35 am 01:35 Clear 74 23.4 73 22.5 95 95 SSW 3 6 29.97 1015 10 16.0934 0 0
1:55 am 01:55 Clear 74 23.6 73 22.7 95 95 SW 5 7 29.97 1015 10 16.0934 0 0
2:15 am 02:15 Clear 75 23.8 73 22.9 95 95 WSW 5 7 29.97 1015 10 16.0934 0 0
2:35 am 02:35 Clear 74 23.4 73 22.7 96 96 SW 5 7 29.96 1014 10 16.0934 0 0
2:55 am 02:55 Clear 74 23.1 73 22.6 97 97 SW 3 6 29.96 1014 10 16.0934 0 0
3:15 am 03:15 Clear 73 22.8 73 22.5 98 98 SW 3 6 29.96 1014 10 16.0934 0 0
3:35 am 03:35 Clear 73 22.7 73 22.6 99 99 SW 3 6 29.96 1015 10 16.0934 0 0
3:55 am 03:55 Clear 72 22 72 22 100 100 SW 5 7 29.97 1015 10 16.0934 0 0
4:15 am 04:15 Clear 72 22.3 72 22.3 100 100 SW 5 7 29.98 1015 10 16.0934 0 0
4:35 am 04:35 Clear 73 22.5 72 22.4 99 99 SSW 6 9 29.97 1015 10 16.0934 0 0
4:55 am 04:55 Clear 73 22.5 72 22.4 99 99 SSW 5 7 29.97 1015 10 16.0934 0 0
5:15 am 05:15 Clear 72 22.3 72 22.2 99 99 SW 3 6 29.97 1015 10 16.0934 0 0
5:35 am 05:35 Clear 72 22 72 22 100 100 SW 5 7 29.96 1015 10 16.0934 0 0
5:55 am 05:55 Clear 72 22 N/A N/A Calm 29.97 1015 10 16.0934 0 0
6:15 am 06:15 Clear 72 22 N/A N/A SW 5 7 29.97 1015 10 16.0934 0 0
6:35 am 06:35 Clear 72 22 N/A N/A SW 5 7 29.96 1015 10 16.0934 0 0
6:55 am 06:55 Clear 72 22 N/A N/A WSW 5 7 29.96 1015 10 16.0934 0 0
7:15 am 07:15 Sunny 72 22 N/A N/A SW 6 9 29.97 1015 10 16.0934 0 0
7:35 am 07:35 Partly Cloudy 73 22.6 73 22.5 99 99 SW 7 11 29.97 1015 10 16.0934 0 0
7:55 am 07:55 Partly Cloudy 73 22.9 73 22.5 98 98 WSW 6 9 29.98 1015 10 16.0934 0 0
8:15 am 08:15 Cloudy 74 23.1 73 22.7 98 98 SW 6 9 29.98 1015 10 16.0934 0 0
8:35 am 08:35 Mostly Cloudy 74 23.5 73 22.7 95 95 SSW 7 11 29.98 1015 10 16.0934 0 0
8:55 am 08:55 Cloudy 75 23.7 73 22.8 95 95 SW 7 11 29.99 1015 10 16.0934 0 0
9:15 am 09:15 Cloudy 75 24 73 23 94 94 SW 6 9 29.99 1015 10 16.0934 0 0
9:35 am 09:35 Partly Cloudy 76 24.4 74 23.2 93 93 WSW 9 15 29.98 1015 10 16.0934 0 0
9:55 am 09:55 Partly Cloudy 79 26.2 74 23.5 85 85 SW 5 7 29.98 1015 10 16.0934 0 0
10:15 am 10:15 Mostly Cloudy 80 26.7 74 23.5 83 83 WSW 10 17 29.98 1015 10 16.0934 0 0
10:35 am 10:35 Cloudy 80 26.9 75 23.7 83 83 SW 9 15 29.98 1015 10 16.0934 0 0
10:55 am 10:55 Cloudy 82 27.5 75 23.7 80 80 SW 12 19 29.99 1015 10 16.0934 0 0
11:15 am 11:15 Cloudy 81 27.4 75 23.7 80 80 SW 10 17 29.99 1015 10 16.0934 0 0
11:35 am 11:35 Cloudy 82 27.6 75 23.9 80 80 WSW 10 17 29.98 1015 10 16.0934 0 0
11:55 am 11:55 Cloudy 82 27.6 74 23.5 78 78 WSW 10 17 29.98 1015 10 16.0934 0 0
12:15 pm 12:15 Cloudy 83 28.2 75 24 78 78 SSW 10 17 29.98 1015 10 16.0934 0 0
12:35 pm 12:35 Mostly Cloudy 83 28.1 75 23.9 78 78 SW 10 17 29.98 1015 10 16.0934 0 0
12:55 pm 12:55 Partly Cloudy 83 28.5 75 23.8 76 76 WSW 14 22 29.97 1015 10 16.0934 0 0
1:15 pm 13:15 Mostly Cloudy 83 28.3 75 23.8 77 77 WSW 8 13 29.97 1015 10 16.0934 0 0
1:35 pm 13:35 Partly Cloudy 85 29.3 75 24 73 73 WSW 12 19 29.95 1014 10 16.0934 0 0
1:55 pm 13:55 Cloudy 85 29.2 75 23.9 73 73 WSW 12 19 29.95 1014 10 16.0934 0 0
2:15 pm 14:15 Partly Cloudy 86 29.8 75 24 71 71 WSW 17 28 29.95 1014 10 16.0934 0 0
2:35 pm 14:35 Mostly Cloudy 86 29.9 75 23.8 70 70 WSW 18 30 29.95 1014 10 16.0934 0 0
2:55 pm 14:55 Partly Cloudy 86 29.8 75 23.8 70 70 W 15 24 29.94 1014 10 16.0934 0 0
3:15 pm 15:15 Mostly Cloudy 86 29.9 74 23.1 67 67 WSW 14 22 29.94 1014 10 16.0934 0 0
3:35 pm 15:35 Partly Cloudy 85 29.4 73 23 68 68 WSW 12 19 29.94 1014 10 16.0934 0 0
3:55 pm 15:55 Sunny 84 29 73 22.9 70 70 SW 12 19 29.94 1014 10 16.0934 0 0
4:55 pm 16:55 Sunny 82 27.8 73 22.8 74 74 SW 6 9 29.94 1014 10 16.0934 0 0
5:15 pm 17:15 Sunny 82 27.9 73 22.6 73 73 SW 10 17 29.93 1013 10 16.0934 0 0
5:35 pm 17:35 Sunny 82 27.8 73 22.6 73 73 WSW 8 13 29.93 1013 10 16.0934 0 0
5:55 pm 17:55 Sunny 82 27.6 73 22.7 75 75 WSW 6 9 29.93 1013 10 16.0934 0 0
6:15 pm 18:15 Sunny 81 27.4 73 22.9 77 77 WSW 3 6 29.93 1013 10 16.0934 0 0
6:35 pm 18:35 Sunny 81 27.3 73 23 77 77 SW 3 6 29.94 1014 10 16.0934 0 0
6:55 pm 18:55 Sunny 81 27.2 74 23.2 79 79 SW 3 6 29.94 1014 10 16.0934 0 0
7:15 pm 19:15 Sunny 81 27.1 74 23.4 80 80 Calm 29.94 1014 10 16.0934 0 0
7:35 pm 19:35 Sunny 80 26.7 74 23.5 83 83 SW 3 6 29.93 1014 10 16.0934 0 0
7:55 pm 19:55 Sunny 80 26.5 75 23.7 85 85 Calm 29.93 1014 10 16.0934 0 0
8:15 pm 20:15 Sunny 79 26.1 75 23.8 87 87 SSW 5 7 29.92 1013 10 16.0934 0 0
8:35 pm 20:35 Clear 78 25.6 75 23.8 90 90 SW 5 7 29.92 1013 10 16.0934 0 0
8:55 pm 20:55 Clear 78 25.5 75 23.7 90 90 Calm 29.92 1013 10 16.0934 0 0
9:15 pm 21:15 Clear 77 25 75 23.8 93 93 SW 5 7 29.92 1013 10 16.0934 0 0
9:35 pm 21:35 Clear 77 24.9 75 23.8 94 94 Calm 29.92 1013 10 16.0934 0 0
9:55 pm 21:55 Clear 77 24.8 75 24 95 95 SW 3 6 29.93 1014 10 16.0934 0 0
10:15 pm 22:15 Clear 77 24.9 75 24.1 95 95 SSW 3 6 29.93 1014 10 16.0934 0 0
10:35 pm 22:35 Clear 77 24.9 75 24.1 95 95 SW 3 6 29.93 1014 10 16.0934 0 0
10:55 pm 22:55 Clear 77 24.8 75 24.1 96 96 WSW 3 6 29.94 1014 10 16.0934 0 0
11:15 pm 23:15 Clear 77 24.9 75 24.1 95 95 Calm 29.94 1014 10 16.0934 0 0
11:35 pm 23:35 Clear 77 24.8 75 24 95 95 Calm 29.94 1014 10 16.0934 0 0
11:55 pm 23:55 Clear 76 24.5 75 24 97 97 Calm 29.94 1014 10 16.0934 0 0

Powered by AerisWeather